Homestead AFB, FL

10:18 PM EDT on June 26, 2017 (GMT -0400)
Dade County-Homestead Regional

Weather History for KHST - April, 2013

Change the Weather History Date:

Wednesday, April 10, 2013

  Actual Average Record
Temperature  
Mean Temperature 78 °F -  
Max Temperature 82 °F 81 °F 92 °F (1942)
Min Temperature 74 °F 59 °F 47 °F (1987)
Cooling Degree Days 13    
Growing Degree Days 28 (Base 50)    
Moisture  
Dew Point 71 °F    
Average Humidity 76    
Maximum Humidity 87    
Minimum Humidity 70    
Precipitation  
Precipitation 0.00 in - - ()
Sea Level Pressure  
Sea Level Pressure 30.05 in    
Wind  
Wind Speed 12 mph (East)    
Max Wind Speed 18 mph    
Max Gust Speed 23 mph    
Visibility 10 miles    
Events Rain    
Averages and records for this station are not official NWS values.
T = Trace of Precipitation, MM = Missing Value Source: NWS Daily Summary

Daily Weather History Graph

Daily Weather History Graph

Search for Another Location

Airport or City:

Trip Planner

Search our weather history database for the weather conditions in past years. The results will help you decide how hot, cold, wet, or windy it might be!

Date:

Astronomy

Apr. 10, 2013 Rise Set
Actual Time 7:03 AM EDT 7:42 PM EDT
Civil Twilight 6:40 AM EDT 8:05 PM EDT
Nautical Twilight 6:12 AM EDT 8:33 PM EDT
Astronomical Twilight 5:45 AM EDT 9:00 PM EDT
Moon 7:01 AM EDT (4/10) 8:10 PM EDT (4/10)
Length of Visible Light 13h 25m
Length of Day
12h 38m
New Moon, 0% of the Moon is Illuminated
Apr 10
New Moon
Apr 18
First Quarter
Apr 25
Full
May 2
Last Quarter
May 9
New

Hourly Weather History & Observations

Time (EDT) Temp. Heat Index Dew Point Humidity Pressure Visibility Wind Dir Wind Speed Gust Speed Precip Events Conditions
12:58 AM 74.3 °F - 66.2 °F 76% 30.11 in 10.0 mi East 10.4 mph - N/A   Clear
1:58 AM 74.7 °F - 66.4 °F 75% 30.10 in 10.0 mi East 8.1 mph - N/A   Scattered Clouds
2:58 AM 74.3 °F - 68.2 °F 81% 30.08 in 10.0 mi East 9.2 mph - N/A   Clear
3:58 AM 74.5 °F - 68.9 °F 83% 30.06 in 10.0 mi East 8.1 mph - N/A   Clear
4:58 AM 74.7 °F - 70.0 °F 85% 30.05 in 10.0 mi East 8.1 mph - N/A   Partly Cloudy
5:58 AM 74.3 °F - 70.2 °F 87% 30.05 in 10.0 mi East 8.1 mph - N/A   Clear
6:58 AM 74.8 °F - 70.3 °F 86% 30.05 in 10.0 mi East 8.1 mph - N/A   Clear
7:58 AM 75.9 °F - 70.7 °F 84% 30.07 in 10.0 mi East 9.2 mph - N/A   Clear
8:58 AM 78.3 °F - 71.1 °F 78% 30.07 in 10.0 mi East 15.0 mph - N/A   Clear
9:58 AM 79.7 °F - 71.2 °F 75% 30.08 in 10.0 mi ESE 18.4 mph 23.0 mph N/A   Clear
10:58 AM 81.3 °F 85.6 °F 71.4 °F 72% 30.09 in 10.0 mi ESE 16.1 mph 23.0 mph N/A   Clear
11:08 AM 82.4 °F 87.2 °F 71.6 °F 70% 30.08 in 10.0 mi ESE 15.0 mph - N/A   Light Drizzle
11:18 AM 80.6 °F 84.6 °F 71.6 °F 74% 30.08 in 10.0 mi ESE 16.1 mph - N/A   Partly Cloudy
11:58 AM 81.9 °F 86.4 °F 71.6 °F 71% 30.08 in 10.0 mi East 13.8 mph 20.7 mph 0.00 in   Clear
12:43 PM 80.6 °F 84.6 °F 71.6 °F 74% 30.07 in 10.0 mi East 12.7 mph - N/A   Mostly Cloudy
12:48 PM 80.6 °F 84.6 °F 71.6 °F 74% 30.07 in 10.0 mi ESE 13.8 mph - N/A   Scattered Clouds
12:58 PM 81.0 °F 84.6 °F 70.3 °F 70% 30.08 in 10.0 mi ESE 17.3 mph - N/A   Scattered Clouds
1:25 PM 82.4 °F 87.2 °F 71.6 °F 70% 30.06 in 10.0 mi ESE 15.0 mph - N/A   Light Drizzle
1:34 PM 80.6 °F 84.6 °F 71.6 °F 74% 30.06 in 10.0 mi East 16.1 mph - N/A   Scattered Clouds
1:58 PM 80.8 °F 84.4 °F 70.7 °F 71% 30.07 in 10.0 mi ESE 13.8 mph 20.7 mph 0.00 in   Partly Cloudy
2:15 PM 80.6 °F 84.6 °F 71.6 °F 74% 30.05 in 10.0 mi SE 12.7 mph - N/A   Scattered Clouds
2:33 PM 82.4 °F 87.2 °F 71.6 °F 70% 30.05 in 10.0 mi ESE 15.0 mph - N/A   Light Drizzle
2:39 PM 82.4 °F 87.2 °F 71.6 °F 70% 30.05 in 10.0 mi East 13.8 mph - N/A   Partly Cloudy
2:58 PM 81.7 °F 85.8 °F 70.9 °F 70% 30.06 in 10.0 mi East 16.1 mph - 0.00 in   Scattered Clouds
3:58 PM 81.1 °F 85.0 °F 71.1 °F 71% 30.04 in 10.0 mi East 13.8 mph - N/A   Partly Cloudy
4:37 PM 80.6 °F 83.9 °F 69.8 °F 70% 30.01 in 10.0 mi ESE 16.1 mph 21.9 mph N/A Rain Light Rain
4:49 PM 80.6 °F 84.6 °F 71.6 °F 74% 30.01 in 10.0 mi East 15.0 mph - N/A   Clear
4:58 PM 80.6 °F 84.4 °F 71.4 °F 73% 30.02 in 10.0 mi East 10.4 mph - 0.00 in   Partly Cloudy
4:59 PM 80.6 °F 84.6 °F 71.6 °F 74% 30.01 in 10.0 mi East 13.8 mph - N/A Rain Light Rain
5:09 PM 80.6 °F 84.6 °F 71.6 °F 74% 30.01 in 10.0 mi East 12.7 mph - N/A   Partly Cloudy
5:12 PM 80.6 °F 84.6 °F 71.6 °F 74% 30.01 in 10.0 mi ESE 11.5 mph - N/A Rain Light Rain
5:13 PM 80.6 °F 84.6 °F 71.6 °F 74% 30.01 in 10.0 mi ESE 11.5 mph - N/A   Partly Cloudy
5:14 PM 80.6 °F 84.6 °F 71.6 °F 74% 30.01 in 10.0 mi ESE 12.7 mph - N/A Rain Light Rain
5:15 PM 80.6 °F 84.6 °F 71.6 °F 74% 30.01 in 10.0 mi ESE 12.7 mph - N/A   Partly Cloudy
5:58 PM 80.2 °F 83.9 °F 71.4 °F 74% 30.01 in 10.0 mi ESE 10.4 mph - 0.00 in   Partly Cloudy
6:58 PM 78.4 °F - 72.1 °F 81% 30.02 in 10.0 mi East 8.1 mph - N/A   Partly Cloudy
7:50 PM 77.0 °F - 71.6 °F 83% 30.00 in 10.0 mi East 9.2 mph - N/A   Light Drizzle
7:58 PM 77.0 °F - 72.3 °F 85% 30.01 in 10.0 mi East 6.9 mph - 0.00 in   Light Drizzle
7:59 PM 77.0 °F - 71.6 °F 83% 30.00 in 10.0 mi East 6.9 mph - N/A   Clear
8:58 PM 77.0 °F - 72.5 °F 86% 30.02 in 10.0 mi East 8.1 mph - 0.00 in   Clear
9:58 PM 77.0 °F - 72.0 °F 84% 30.03 in 10.0 mi East 11.5 mph - N/A   Clear
10:58 PM 77.7 °F - 71.6 °F 81% 30.03 in 10.0 mi East 10.4 mph - N/A   Clear
11:58 PM 77.4 °F - 70.9 °F 80% 30.03 in 10.0 mi ESE 13.8 mph 21.9 mph N/A   Clear